Flag for Netherlands Weather past 2 weeks in Dordrecht, Netherlands

Now
55 °F

Clear.


Feels Like: 52 °F
Forecast: 47 / 59 °F
Wind: 12 mph from West

Location: Rotterdam Zestienhoven Airport

Current Time: Oct 25, 2014 at 5:41:33 PM

Latest Report: Oct 25, 2014 at 4:55 PM


Visibility: N/A

Pressure: 30.09 "Hg

Humidity: 72%

Dew point: 46 °F

Location of DordrechtLocation

Historic Weather in Dordrecht — Graph

°F

Dordrecht temperature yesterday

Maximum temperature yesterday: 55 °F (at 12:25 AM)
Minimum temperature yesterday: 54 °F (at 1:25 AM)
Average temperature yesterday: 54 °F

Past Weeks' High & Low Weather Summary

 TemperatureHumidityPressure
High73 °F (Oct 18, 3:55 PM)100% (Oct 11, 2:55 AM)30.18 "Hg (Oct 11, 2:55 AM)
Low46 °F (Oct 11, 4:25 AM)62% (Oct 22, 8:55 AM)29.45 "Hg (Oct 21, 1:25 PM)
Average57 °F85%29.86 "Hg
* Reported Oct 10 4:25 PM — Oct 25 4:55 PM, Dordrecht, Weather by CustomWeather, © 2014

Note: Actual official high and low records may vary slightly from our data, if they occured in-between our weather recording intervals... More about our weather records

Advertising

Dordrecht weather history for previous 24 hours

 ConditionsComfort  
Time TempWeatherWind HumidityBarometerVisibility
4:55 PM
Oct 25
55 °FClear.12 mph72%30.09 "HgN/A
4:25 PM57 °FOvercast.8 mph67%30.09 "HgN/A
3:55 PM57 °FMostly cloudy.12 mph72%30.07 "HgN/A
3:25 PM57 °FMostly cloudy.5 mph82%30.07 "HgN/A
2:55 PM57 °FOvercast.7 mph77%30.07 "HgN/A
2:25 PM57 °FMostly cloudy.7 mph77%30.07 "HgN/A
1:55 PM57 °FOvercast.7 mph77%30.07 "HgN/A
1:25 PM59 °FPartly sunny.5 mph77%30.07 "HgN/A
12:55 PM59 °FOvercast.3 mph77%30.07 "HgN/A
12:25 PM59 °FMore clouds than sun.5 mph77%30.07 "HgN/A
11:55 AM59 °FOvercast.3 mph82%30.07 "HgN/A
11:25 AM57 °FOvercast.3 mph88%30.07 "HgN/A
10:55 AM57 °FOvercast.3 mph94%30.04 "Hg6 mi
10:25 AM57 °FFog.2 mph94%30.04 "Hg2 mi
9:55 AM55 °FFog.1 mph100%30.04 "Hg1 mi
9:25 AM54 °FFog.5 mph100%30.04 "Hg1 mi
8:55 AM52 °FFog.3 mph100%30.01 "Hg0 mi
8:25 AM52 °FFog.3 mph100%30.01 "Hg1 mi
7:55 AM54 °FFog.6 mph100%30.01 "Hg2 mi
7:25 AM54 °FFog.6 mph100%29.98 "Hg2 mi
6:55 AM55 °FFog.6 mph94%29.98 "Hg2 mi
6:25 AM55 °FFog.7 mph100%29.98 "Hg3 mi
5:55 AM55 °FFog.8 mph100%29.98 "Hg3 mi
5:25 AM55 °FFog.7 mph100%29.98 "Hg3 mi
4:55 AM57 °FDrizzle. Low clouds.10 mph94%29.98 "Hg3 mi
4:25 AM57 °FFog.13 mph94%29.95 "Hg3 mi
3:55 AM55 °FLow clouds.10 mph100%29.95 "Hg4 mi
3:25 AM55 °FLow clouds.12 mph100%29.95 "Hg4 mi
2:55 AM55 °FFog.13 mph94%29.95 "Hg3 mi
2:25 AM55 °FFog.13 mph94%29.98 "Hg3 mi
1:55 AM55 °FMostly cloudy.14 mph94%29.98 "Hg4 mi
1:25 AM55 °FMostly cloudy.13 mph94%29.98 "Hg4 mi
12:55 AM54 °FFog.12 mph100%29.98 "Hg3 mi
12:25 AM54 °FMostly cloudy.14 mph100%29.98 "Hg6 mi
11:55 PM
Oct 24
54 °FMostly cloudy.14 mph100%29.98 "HgN/A
11:25 PM54 °FLight rain. Partly cloudy.14 mph94%29.98 "HgN/A
10:55 PM54 °FSprinkles. Partly cloudy.13 mph94%29.98 "HgN/A
10:25 PM54 °FRain showers. Partly cloudy.13 mph100%29.95 "Hg5 mi
9:55 PM54 °FRain showers. Partly cloudy.13 mph100%29.98 "Hg3 mi
9:25 PM54 °FSprinkles. Partly cloudy.14 mph100%29.98 "Hg2 mi
8:55 PM54 °FLow clouds.14 mph100%29.98 "Hg4 mi
8:25 PM54 °FFog.13 mph100%29.98 "Hg2 mi
7:55 PM54 °FLight rain. Mostly cloudy.13 mph100%29.98 "Hg2 mi
7:25 PM54 °FLight rain. Mostly cloudy.13 mph100%29.98 "Hg2 mi
6:55 PM54 °FDrizzle. Broken clouds.12 mph100%29.98 "Hg2 mi
6:25 PM55 °FLight rain. Mostly cloudy.12 mph94%29.98 "Hg3 mi
5:55 PM55 °FDrizzle. Mostly cloudy.13 mph94%29.98 "Hg1 mi
5:25 PM55 °FDrizzle. Cloudy.12 mph94%29.98 "Hg3 mi
Weather by CustomWeather, © 2014

See weather overviewHow to use our weather pages